Location: Palo Alto
(37.4420°N, 122.1420°W)
Time: 20:18:44
(UTC-07:00)

YUBILEINY - Visible Passes

Search period start: 22 October 2020 00:00
Search period end: 01 November 2020 00:00
Orbit: 1478 x 1509 km, 82.5° (Epoch: 22 October)

Date Brightness Start Highest point End Pass type
(mag) Time Alt. Az. Time Alt. Az. Time Alt. Az.
22 Oct ? 22:31:44 10° N 22:31:58 11° N 22:31:58 11° N visible
23 Oct ? 23:38:18 10° N 23:38:37 11° N 23:38:37 11° N visible
24 Oct ? 22:48:54 10° N 22:49:23 12° N 22:49:23 12° N visible
25 Oct ? 22:00:06 10° NNE 22:00:10 10° NNE 22:00:10 10° NNE visible
26 Oct ? 23:06:21 10° N 23:06:51 12° N 23:06:51 12° N visible
27 Oct ? 22:17:06 10° N 22:17:39 12° N 22:17:39 12° N visible
28 Oct ? 23:24:02 10° NNW 23:24:21 11° NNW 23:24:21 11° NNW visible
29 Oct ? 22:34:27 10° N 22:35:10 13° N 22:35:10 13° N visible
30 Oct ? 21:45:22 10° N 21:46:00 12° N 21:46:00 12° N visible
31 Oct ? 22:52:02 10° N 22:52:44 13° N 22:52:44 13° N visible
